User: anonymous   Login
Location: Unspecified
(0.0000°N, 0.0000°E)
Time: 20:13:40
(UTC+00:00)
Language:

STARLINK-30795 - Orbit

View from above orbital plane
View from above orbital plane
View from above satellite
View from above satellite

Ground track
Ground track

The orbit is defined by the following mean orbital elements,

1 58118U          26145.46565360 +.00000000 +00000-0 -16204-4 0 00007
2 58118  43.0050  58.5074 0000989 256.9114 103.1627 15.27576899    09
Epoch (UTC): 25 May 2026 11:10:32
Eccentricity: 0.0000989
inclination: 43.0050°
perigee height: 482 km
apogee height: 484 km
right ascension of ascending node: 58.5074°
argument of perigee: 256.9114°
revolutions per day: 15.27576899
mean anomaly at epoch: 103.1627°

The dashed part of the orbit path shows where the satellite is in the earth's shadow,  

DLR